{"data":{"norad_id":49737,"epoch":"2026-05-24T10:48:07.570368Z","epoch_age_seconds":119403,"freshness":"FRESH","line1":"1 49737U 21115P   26144.45008762  .00000388  00000+0  42482-4 0  9991","line2":"2 49737  53.2158 169.0180 0001046  72.0552 288.0554 15.08838207246975","mean_motion":15.08838207,"eccentricity":0.0001046,"inclination_deg":53.2158,"raan_deg":169.018,"arg_perigee_deg":72.0552,"mean_anomaly_deg":288.0554,"bstar":4.2482e-5,"rev_number":24697,"period_min":95.43766808922,"perigee_km":539.02525859129,"apogee_km":540.47248031517,"semimajor_km":6917.8858694532,"source":"CELESTRAK","updated_at":"2026-05-25T13:38:16.833670Z"}}